Delta Virtual Airport Information Service

New York Newark Liberty International Airport

ICAO: KEWR Country: United States
Latitude: 40.6925 Longitude: -74.1686
Latest Arrival : FDX1026 (2B) (KBOS-KEWR) Latest Departure : FDX1202 (3) (KEWR-KMEM)


WX CaptureLIVE
Data provided by noaa.gov | Fetched at 01:14:36

METAR : KEWR 300551Z 00000KT 10SM BKN026 BKN230 03/M01 A3024 RMK AO2 SLP240 T00331011 10061 20022 58012

TAF : KEWR 300551Z 00000KT 10SM BKN026 BKN230 03/M01 A3024 RMK AO2 SLP240 T00331011 10061 20022 58012


Runway Data for KEWR
Data provided by openaviationdata.com

Runway ID Mag Var Hdg Length Elevation Surface ILS Freq ILS Id ILS Slope
04L -13 38° 11003 ft 18 ft Asphalt 110.75 IEWR 3
04R -13 38° 9983 ft 18 ft Asphalt 108.7 IEZA 3
11 -13 108° 6790 ft 18 ft Asphalt 109.15 IGPR 3
22L -13 218° 9983 ft 18 ft Asphalt 108.7 ILSQ 3
22R -13 218° 11003 ft 18 ft Asphalt 110.75 IJNN 3
29 -13 288° 6790 ft 18 ft Asphalt -- -- --

New York Newark Liberty International Airport, United States
Use only for reference purposes



Not for navigational purposes.